Home > Weather > Vista > Past weeks

Flag for USA Past Weather in Vista, California, USA — Yesterday and Last 2 Weeks

Now
80 °F

Sunny.


Feels Like: 82 °F
Forecast: 67 / 89 °F
Wind: 12 mph from Southwest

Location: McClellan-Palomar Airport

Current Time: Jul 23, 2016 at 12:29:35 PM

Latest Report: Jul 23, 2016 at 11:53 AM


Visibility: 10 mi

Pressure: 29.81 "Hg

Humidity: 64%

Dew Point: 67 °F

Location of VistaLocation

Past Weather in Vista — Graph

°F

Vista Temperature Yesterday

Maximum temperature yesterday: 84 °F (at 2:53 PM)
Minimum temperature yesterday: 67 °F (at 6:59 AM)
Average temperature yesterday: 76 °F

High & Low Weather Summary for the Past Weeks

 TemperatureHumidityPressure
High84 °F (Jul 22, 2:53 PM)100% (Jul 22, 6:59 AM)30.03 "Hg (Jul 22, 6:59 AM)
Low63 °F (Jul 9, 3:53 AM)50% (Jul 22, 6:53 PM)29.78 "Hg (Jul 23, 4:53 AM)
Average70 °F79%29.93 "Hg
* Reported Jul 8 10:53 AM — Jul 23 10:53 AM, Vista, Weather by CustomWeather, © 2016

Note: Actual official high and low records may vary slightly from our data, if they occured in-between our weather recording intervals... More about our weather records

Advertising

Vista Weather History for the Previous 24 Hours

Scroll right to see more
 ConditionsComfort  
Time TempWeatherWind HumidityBarometerVisibility
10:53 AM
Sat, Jul 23
80 °FSunny.9 mph67%29.81 "Hg10 mi
9:53 AM83 °FSunny.8 mph63%29.80 "Hg10 mi
8:53 AM79 °FSunny.3 mph67%29.81 "Hg10 mi
7:53 AM74 °FSunny.5 mph76%29.81 "Hg10 mi
7:04 AM69 °FFog.No wind100%29.81 "Hg6 mi
6:53 AM69 °FFog.No wind100%29.80 "Hg3 mi
5:53 AM68 °FClear.No wind96%29.79 "Hg7 mi
4:53 AM69 °FPassing clouds.No wind96%29.78 "Hg7 mi
3:53 AM69 °FFog.No wind100%29.79 "Hg1 mi
2:53 AM71 °FFog.No wind96%29.80 "Hg4 mi
1:53 AM72 °FLow clouds.3 mph93%29.81 "Hg8 mi
12:53 AM73 °FPassing clouds.3 mph88%29.82 "Hg9 mi
11:53 PM
Fri, Jul 22
73 °FPassing clouds.No wind88%29.82 "Hg9 mi
10:53 PM74 °FClear.3 mph82%29.83 "Hg9 mi
9:53 PM76 °FClear.3 mph74%29.83 "Hg10 mi
8:53 PM77 °FSunny.3 mph71%29.82 "Hg10 mi
7:53 PM78 °FSunny.No wind66%29.81 "Hg10 mi
6:53 PM83 °FSunny.3 mph50%29.82 "Hg10 mi
5:53 PM80 °FSunny.5 mph54%29.82 "Hg10 mi
4:53 PM82 °FSunny.6 mph56%29.83 "Hg10 mi
3:53 PM82 °FSunny.7 mph55%29.85 "Hg10 mi
2:53 PM84 °FSunny.9 mph53%29.87 "Hg10 mi
1:53 PM83 °FSunny.8 mph59%29.88 "Hg10 mi
12:53 PM82 °FSunny.8 mph55%29.90 "Hg10 mi
Weather by CustomWeather, © 2016

See weather overviewHow to use our weather pages